Flag for U.S.A. Weather past 2 weeks in Montgomery, Alabama, U.S.A.

Now
76 °F

Clear.


Feels Like: 75 °F
Forecast: 76 / 96 °F
Wind: No wind

Location: Maxwell Air Force Base / Montgomery

Current Time: Aug 23, 2014 at 5:03:51 AM

Latest Report: Aug 23, 2014 at 3:58 AM


Visibility: 10 mi

Pressure: 29.98 "Hg

Humidity: 100%

Dew point: 76 °F

Location of MontgomeryLocation

Historic Weather in Montgomery — Graph

°F

Montgomery temperature yesterday

Maximum temperature yesterday: 96 °F (at 3:58 PM)
Minimum temperature yesterday: 75 °F (at 5:58 AM)
Average temperature yesterday: 85 °F

Past Weeks' High & Low Weather Summary

 TemperatureHumidityPressure
High96 °F (Aug 22, 3:58 PM)100% (Aug 8, 4:58 AM)30.15 "Hg (Aug 8, 4:58 AM)
Low64 °F (Aug 15, 5:58 AM)37% (Aug 13, 4:58 PM)29.87 "Hg (Aug 12, 6:58 PM)
Average79 °F82%30.00 "Hg
* Reported Aug 8 3:58 AM — Aug 23 3:58 AM, Montgomery, Weather by CustomWeather, © 2014

Note: Actual official high and low records may vary slightly from our data, if they occured in-between our weather recording intervals... More about our weather records

Advertising

Montgomery weather history for previous 24 hours

 ConditionsComfort  
Time TempWeatherWind HumidityBarometerVisibility
3:58 AM
Aug 23
76 °FClear.No wind100%29.98 "Hg10 mi
2:58 AM77 °FClear.No wind99%29.98 "Hg10 mi
1:58 AM78 °FClear.No wind94%29.98 "Hg10 mi
12:58 AM79 °FClear.2 mph89%29.99 "Hg10 mi
11:58 PM
Aug 22
80 °FClear.No wind91%30.00 "Hg10 mi
10:58 PM80 °FClear.2 mph88%30.01 "Hg10 mi
9:58 PM82 °FClear.1 mph82%30.01 "Hg10 mi
8:58 PM82 °FClear.No wind82%30.00 "Hg10 mi
7:58 PM87 °FSunny.2 mph68%29.99 "Hg10 mi
6:58 PM90 °FPartly sunny.1 mph67%29.99 "Hg10 mi
5:58 PM95 °FSunny.5 mph49%29.99 "Hg10 mi
4:58 PM95 °FSunny.1 mph47%30.00 "Hg10 mi
4:04 PM95 °FDrizzle. Overcast.3 mph47%30.02 "Hg10 mi
3:58 PM96 °FOvercast.5 mph47%30.02 "Hg10 mi
2:58 PM96 °FPassing clouds.1 mph48%30.03 "Hg10 mi
1:58 PM95 °FScattered clouds.2 mph50%30.05 "Hg10 mi
12:58 PM93 °FPassing clouds.5 mph54%30.08 "Hg10 mi
11:58 AM92 °FSunny.8 mph55%30.10 "Hg10 mi
10:58 AM90 °FSunny.5 mph61%30.12 "Hg10 mi
9:58 AM87 °FSunny.10 mph65%30.13 "Hg10 mi
8:58 AM84 °FSunny.3 mph79%30.12 "Hg10 mi
7:58 AM79 °FSunny.No wind97%30.11 "Hg10 mi
6:58 AM76 °FClear.2 mph100%30.09 "Hg9 mi
5:58 AM75 °FFog.2 mph100%30.07 "Hg5 mi
Weather by CustomWeather, © 2014

See weather overviewHow to use our weather pages